Вернуться в каталог

COSMOS 886 DEB

АктивенLEO
NORAD 18907·DEBRIS·🇷🇺 Russia

Запущен Dec 27, 1976 с Baikonur Cosmodrome

Loading…

Ближайшие Пролёты (ближайшие 24 часа)

TLE

СвежийSource: Space-Track

Эпоха: Sep 14, 2026, 04:19 UTC

1 18907U 76126BY  26257.18010841  .00001750  00000-0  41752-3 0  9997
2 18907  65.8140 168.3446 0865908 346.8004  11.1603 13.31640556859631

Отслеживайте COSMOS 886 DEB в реальном времени с AllMySat

Download on the App Store